Terug naar catalogus

KUIPER-00012

ActiefCommunicatieLEO
NORAD 63728·PAYLOAD·🇺🇸 United States

Gelanceerd Apr 28, 2025 vanaf Cape Canaveral Space Force Station

Loading…

Volgende Passages (komende 24 uur)

TLE

VersSource: CelesTrak SupGP

Epoch: Sep 14, 2026, 23:22 UTC

1 63728C 25088E   26257.97407407  .00001509  00000+0  19761-3 0  2577
2 63728  51.9011 318.5876 0000323  53.0702 158.8022 14.79917701    11

Volg KUIPER-00012 in realtime met AllMySat

Download on the App Store